[[{"header":{"parameterUnit":"m.s-1","parameterCategory":1,"la1":30.2991,"la2":30.254,"lo1":-89.0895,"lo2":-89.0444,"dy":0.0017,"dx":0.0017,"nx":28,"ny":28,"refTime":"2025-11-07T03:00:00:Z","depth":0,"parameterNumber":2,"parameterNumberName":"U-component_of_WINDS"},"data":[0,0,0,0,0,0,0,0,0,0,0,0,0,0,0,0,0,0,0,0,0,0,0,0,0,0,0,0,0,0,0,0,0,0,0,0,0,0,0,0,0,0,0,0,0,0,0,0,0,0,0,0,0,0,0,0,0,0,3.3872,3.3874,0,3.4037,3.4038,3.404,3.3999,3.3996,3.3993,3.399,3.4165,3.4172,3.418,0,0,0,0,0,0,0,0,0,0,0,0,0,3.353,3.3537,3.3872,3.3874,3.3876,3.4036,3.4038,3.4041,3.4,3.3996,3.3992,3.3988,3.4162,3.4171,3.4181,0,0,0,0,0,0,0,0,0,0,0,0,0,3.3685,3.3539,3.3871,3.3875,3.3877,3.4036,3.4039,3.4041,3.4001,3.3996,3.3991,3.3986,3.4159,3.4171,3.4182,3.435,0,0,3.4217,3.4222,0,0,0,0,0,0,0,0,3.3677,3.3698,3.3872,3.3875,3.3877,3.3992,3.3982,3.4145,3.4002,3.3954,3.399,3.3984,3.4112,3.4127,3.4169,3.4358,3.4366,3.4218,3.4225,3.423,3.4233,0,0,0,0,0,0,0,3.3666,3.3691,3.3937,3.3875,3.3878,3.3871,3.3887,3.4013,3.4058,3.3958,3.3955,3.3975,3.4112,3.4158,3.4172,3.4368,3.4218,3.4228,3.4235,3.424,3.4708,3.4713,0,0,0,0,0,0,3.3652,3.3682,3.3932,3.3942,3.3763,3.3881,3.3899,3.396,3.4057,3.4067,3.3979,3.3972,3.414,3.4159,3.4178,3.4383,3.423,3.4241,3.4247,3.4702,3.4709,3.4715,0,0,0,0,0,0,3.3645,3.3675,3.3925,3.3811,3.3843,3.3892,3.3961,3.3966,3.4011,3.4072,3.4081,3.4016,3.4137,3.4162,3.4308,3.4388,3.4246,3.4256,3.4696,3.4704,3.4712,3.4793,0,0,0,0,0,0,3.3635,3.3672,3.3734,3.3813,3.3849,3.4049,3.3965,3.3973,3.403,3.4024,3.411,3.412,3.4135,3.4291,3.4319,3.4402,3.4265,3.4689,3.4699,3.4709,3.4783,3.4803,3.4819,0,0,0,0,0,3.3623,3.3751,3.3738,3.3768,3.3927,3.4054,3.4075,3.4088,3.4037,3.4101,3.4141,3.4117,3.4375,3.4306,3.4338,3.4425,3.4684,3.4696,3.4708,3.4775,3.4799,3.4819,0,0,0,0,0,0,3.3682,3.3761,3.3747,3.3904,3.3972,3.4047,3.4128,3.4113,3.4199,3.4189,3.4205,3.4225,3.4374,3.4414,3.4336,3.4595,3.4523,3.4542,3.4562,3.4585,3.4603,3.459,3.4275,0,0,0,0,0,3.3713,3.3807,3.3872,3.4004,3.4039,3.4078,3.4134,3.4139,3.4211,3.424,3.4291,3.4364,3.4462,3.4526,3.462,3.4789,3.4809,3.4865,3.4884,3.4898,3.4915,3.501,3.5036,3.4756,3.4756,3.4755,0,0,3.3778,3.3833,3.3891,3.4018,3.4071,3.4171,3.4103,3.421,3.4285,3.4257,3.4397,3.4438,3.4521,3.468,3.4753,3.4718,3.4997,3.4914,3.4925,3.4934,3.5026,3.5052,3.5076,3.4764,3.4763,3.4761,0,0,3.3947,3.3998,3.4114,3.417,3.4252,3.4277,3.4305,3.4383,3.4408,3.4549,3.4531,3.4623,3.479,3.4851,3.4904,3.5101,3.5082,3.5131,3.5226,3.5319,3.5341,3.5361,3.5433,3.5458,3.5148,3.5148,3.5148,0,3.4018,3.4165,3.4176,3.4287,3.4344,3.4323,3.4443,3.4497,3.4606,3.4648,3.4608,3.482,3.4874,3.5048,3.5096,3.514,3.5175,3.5121,3.5337,3.5357,3.5375,3.5444,3.5471,3.5153,3.5153,3.5152,3.5152,0,3.4249,3.4352,3.4437,3.4541,3.4609,3.4724,3.4755,3.4823,3.4824,3.4854,3.5,3.5066,3.5173,3.5215,3.5217,3.5391,3.5367,3.5332,3.526,3.5407,3.5472,3.5498,3.5161,3.5159,3.5158,3.5156,0,0,3.4456,3.4568,3.4599,3.4648,3.4739,3.482,3.4936,3.5039,3.5098,3.5176,3.5275,3.5419,3.5388,3.5448,3.5457,3.5539,3.5693,3.5495,3.5497,3.553,3.5892,3.5917,3.5947,3.5682,3.5688,3.5692,3.5885,0,3.4634,3.4834,3.485,3.5033,3.513,3.5113,3.5215,3.5284,3.5317,3.5406,3.5444,3.5546,3.5497,3.5534,3.5614,3.5657,3.5766,3.5644,3.5777,3.5781,3.5755,3.598,3.6006,3.6185,3.591,3.5914,3.5918,0,3.4866,3.495,3.5142,3.5222,3.5263,3.5353,3.5452,3.5537,3.5616,3.5635,3.5704,3.5703,3.5826,3.575,3.5921,3.5838,3.5894,3.5924,3.5931,3.5943,3.5857,3.5999,3.6243,3.6269,3.5957,3.5954,3.5951,0,3.4999,3.516,3.5296,3.5338,3.5435,3.5499,3.5543,3.5618,3.568,3.5767,3.5809,3.591,3.5965,3.6045,3.6073,3.6015,3.6243,3.6169,3.6264,3.6263,3.6311,3.6308,3.6567,3.6349,3.6348,3.6348,3.6347,0,3.5194,3.5312,3.5357,3.544,3.5574,3.5593,3.5726,3.5767,3.5834,3.5927,3.5921,3.601,3.6041,3.6136,3.6159,3.6298,3.6324,3.6344,3.6349,3.6344,3.6342,3.638,3.6368,3.6355,3.6353,3.6352,3.6351,0,3.5363,3.5398,3.5545,3.5626,3.5649,3.5744,3.5814,3.5897,3.593,3.6049,3.6078,3.6131,3.6243,3.6279,3.6415,3.643,3.6593,3.6587,3.6565,3.6566,3.6658,3.6649,3.6951,3.6992,3.6747,3.6749,3.6751,0,3.5485,3.5575,3.5666,3.5728,3.5774,3.5873,3.5937,3.5962,3.603,3.6129,3.6201,3.6311,3.64,3.6581,3.6633,3.6738,3.6734,3.6833,3.675,3.6743,3.6736,3.673,3.674,3.6848,3.6851,3.6853,3.6854,0,3.5698,3.5711,3.5802,3.5902,3.5978,3.6057,3.6134,3.6186,3.6222,3.6299,3.6413,3.6482,3.6621,3.6732,3.6839,3.6888,3.6879,3.6881,3.6908,3.6904,3.6887,3.6898,3.6607,3.6873,3.6871,3.687,3.6869,3.6868,3.5847,3.5927,3.6005,3.6108,3.6168,3.6241,3.6323,3.6367,3.6462,3.6575,3.6586,3.6709,3.6791,3.6934,3.6988,3.7087,3.7059,3.7099,3.7109,3.7118,3.7125,3.6873,3.7107,3.7106,3.7106,3.7106,3.7105,0,3.6059,3.6109,3.6204,3.6311,3.6394,3.6377,3.6463,3.6533,3.6641,3.6717,3.6806,3.6939,3.7047,3.711,3.7219,3.7286,3.7285,3.7314,3.7309,3.7321,3.7144,3.7109,3.7314,3.7314,3.7314,3.7314,3.7313,3.7313,3.6179,3.6315,3.6338,3.6506,3.6556,3.6675,3.6726,3.6794,3.6855,3.7003,3.7093,3.7133,3.7205,3.732,3.742,3.7436,3.7476,3.7509,3.7522,3.7354,3.7333,3.7312,3.728,3.7517,3.7518,3.769,3.7692,3.7693]},{"header":{"parameterUnit":"m.s-1","parameterCategory":1,"la1":30.2991,"la2":30.254,"lo1":-89.0895,"lo2":-89.0444,"dy":0.0017,"dx":0.0017,"nx":28,"ny":28,"refTime":"2025-11-07T03:00:00:Z","depth":0,"parameterNumber":3,"parameterNumberName":"V-component_of_WINDS"},"data":[0,0,0,0,0,0,0,0,0,0,0,0,0,0,0,0,0,0,0,0,0,0,0,0,0,0,0,0,0,0,0,0,0,0,0,0,0,0,0,0,0,0,0,0,0,0,0,0,0,0,0,0,0,0,0,0,0,0,1.2426,1.2427,0,1.248,1.2481,1.2482,1.2493,1.2493,1.2493,1.2492,1.2547,1.2549,1.255,0,0,0,0,0,0,0,0,0,0,0,0,0,1.233,1.2332,1.2426,1.2427,1.2427,1.248,1.2481,1.2482,1.2494,1.2493,1.2493,1.2492,1.2546,1.2548,1.2551,0,0,0,0,0,0,0,0,0,0,0,0,0,1.2377,1.2332,1.2426,1.244,1.2441,1.248,1.2481,1.2482,1.2494,1.2493,1.2492,1.2492,1.2546,1.2548,1.2551,1.258,0,0,1.2559,1.256,0,0,0,0,0,0,0,0,1.2374,1.238,1.2437,1.2439,1.2441,1.248,1.2467,1.2515,1.2494,1.2474,1.2492,1.2492,1.2525,1.2529,1.2541,1.2582,1.2585,1.256,1.2561,1.2562,1.2563,0,0,0,0,0,0,0,1.2371,1.2378,1.2448,1.2438,1.244,1.2442,1.2448,1.2476,1.2502,1.2475,1.2476,1.2483,1.2526,1.2538,1.2542,1.2585,1.2559,1.2562,1.2564,1.2565,1.2651,1.2652,0,0,0,0,0,0,1.2365,1.2375,1.2446,1.2449,1.2405,1.2444,1.2451,1.2468,1.2502,1.2506,1.2483,1.2483,1.2534,1.2539,1.2544,1.2579,1.2562,1.2565,1.2566,1.265,1.2651,1.2652,0,0,0,0,0,0,1.2363,1.2372,1.2444,1.2412,1.2422,1.2447,1.2465,1.2469,1.2481,1.2508,1.2512,1.2491,1.2533,1.254,1.257,1.2581,1.2566,1.2569,1.265,1.2651,1.2651,1.265,0,0,0,0,0,0,1.2361,1.2371,1.2383,1.2413,1.2423,1.247,1.2466,1.2471,1.2486,1.2487,1.2516,1.2521,1.2534,1.2566,1.2573,1.2585,1.2571,1.2649,1.265,1.2651,1.2649,1.265,1.2652,0,0,0,0,0,1.2357,1.238,1.2383,1.2392,1.2439,1.247,1.2477,1.2491,1.2487,1.2499,1.2515,1.252,1.2579,1.2569,1.2577,1.259,1.2648,1.265,1.2651,1.2648,1.265,1.2652,0,0,0,0,0,0,1.2351,1.2384,1.2388,1.2422,1.2443,1.2472,1.2488,1.2493,1.2516,1.2515,1.2532,1.2539,1.2567,1.2581,1.257,1.2618,1.2613,1.2616,1.2608,1.261,1.2612,1.2608,1.2573,0,0,0,0,0,1.2354,1.2377,1.2405,1.2431,1.2442,1.2463,1.2477,1.2486,1.2509,1.2518,1.2537,1.2558,1.2581,1.2596,1.2619,1.265,1.2656,1.2663,1.2664,1.2665,1.2668,1.2684,1.2687,1.2657,1.2657,1.2657,0,0,1.2359,1.238,1.2394,1.2431,1.2448,1.2471,1.247,1.2495,1.2512,1.2522,1.2551,1.2566,1.259,1.2621,1.2635,1.2633,1.2677,1.2667,1.2668,1.267,1.2686,1.2688,1.2691,1.2658,1.2657,1.2657,0,0,1.2381,1.24,1.2424,1.2441,1.2468,1.2481,1.2486,1.2515,1.2524,1.2554,1.2561,1.2581,1.2621,1.2638,1.2652,1.2678,1.2682,1.2685,1.2693,1.2708,1.271,1.2712,1.2721,1.2724,1.2687,1.2687,1.2687,0,1.2385,1.2421,1.2435,1.2459,1.2475,1.2484,1.2508,1.2523,1.2556,1.2566,1.2563,1.2613,1.263,1.2664,1.267,1.2681,1.2687,1.2682,1.2709,1.2711,1.2713,1.2722,1.2725,1.2687,1.2687,1.2687,1.2687,0,1.2423,1.2447,1.2463,1.2494,1.2511,1.2535,1.2552,1.2568,1.2575,1.2588,1.2617,1.2638,1.2665,1.2673,1.2681,1.2707,1.2705,1.2706,1.2701,1.2716,1.2724,1.2727,1.2687,1.2687,1.2687,1.2687,0,0,1.2445,1.2482,1.2488,1.2501,1.253,1.2549,1.2572,1.2598,1.261,1.2631,1.2651,1.2683,1.2683,1.2699,1.2708,1.2721,1.2739,1.272,1.272,1.2722,1.2769,1.2768,1.2772,1.2742,1.2743,1.2743,1.2766,0,1.247,1.2513,1.2525,1.2561,1.2583,1.2591,1.2611,1.263,1.2642,1.2662,1.2675,1.2698,1.2696,1.2706,1.2719,1.2734,1.2749,1.2732,1.2759,1.276,1.2753,1.2776,1.2777,1.2798,1.277,1.277,1.2771,0,1.2506,1.2527,1.2565,1.2589,1.2599,1.2617,1.2641,1.266,1.2681,1.2689,1.2705,1.2713,1.2736,1.2729,1.2761,1.275,1.2761,1.277,1.2771,1.2774,1.2767,1.278,1.2805,1.2808,1.2776,1.2775,1.2775,0,1.2517,1.2555,1.2582,1.2594,1.2623,1.2635,1.2648,1.2668,1.2683,1.2703,1.2712,1.2735,1.2747,1.2764,1.2777,1.2772,1.2808,1.2802,1.2814,1.2814,1.2822,1.2821,1.2849,1.2829,1.2829,1.2829,1.2829,0,1.2544,1.2567,1.2588,1.2604,1.2629,1.2643,1.2667,1.2679,1.2697,1.2716,1.2724,1.2741,1.2757,1.2776,1.2786,1.281,1.2815,1.2822,1.2824,1.2821,1.282,1.2829,1.2828,1.283,1.283,1.283,1.2829,0,1.2561,1.2576,1.2606,1.2631,1.2638,1.2655,1.2675,1.2691,1.2703,1.2726,1.2732,1.2751,1.2773,1.2788,1.2816,1.2823,1.2849,1.2851,1.2842,1.2843,1.2854,1.2852,1.2888,1.2893,1.287,1.287,1.2871,0,1.2578,1.2595,1.2621,1.2634,1.2647,1.2668,1.2682,1.2695,1.271,1.2734,1.2746,1.2769,1.2788,1.2823,1.2839,1.286,1.2863,1.2873,1.2866,1.2862,1.2862,1.2861,1.2862,1.2875,1.2875,1.2875,1.2875,0,1.2605,1.2611,1.2632,1.2654,1.2671,1.2689,1.2707,1.2717,1.2734,1.2749,1.2772,1.2786,1.2815,1.2837,1.2859,1.2871,1.2876,1.2877,1.2881,1.2878,1.2872,1.2875,1.2845,1.2877,1.2877,1.2877,1.2876,1.2876,1.2623,1.2638,1.2658,1.268,1.2695,1.2711,1.2727,1.274,1.2759,1.2784,1.279,1.2814,1.2832,1.2863,1.2875,1.2893,1.2892,1.2897,1.2899,1.29,1.29,1.2869,1.2897,1.2897,1.2897,1.2897,1.2897,0,1.265,1.2663,1.2683,1.2708,1.2724,1.2727,1.2747,1.276,1.2781,1.2798,1.2816,1.2841,1.2862,1.2879,1.29,1.2911,1.2913,1.2916,1.2916,1.2918,1.29,1.2895,1.2914,1.2914,1.2914,1.2914,1.2914,1.2914,1.2666,1.2692,1.27,1.2732,1.2745,1.2768,1.2779,1.2793,1.2807,1.2835,1.2852,1.2863,1.2879,1.2901,1.292,1.2924,1.2931,1.2934,1.2938,1.2921,1.2919,1.2918,1.2913,1.2935,1.2935,1.2955,1.2955,1.2955]}]]